This demonstration page uses our WeatherBlox Daily Observations layout. Learn more.

Left ArrowRight Arrow

39.29038, -76.61219

Hourly Observations for May 27, 2017

Temp ( °F °C ) Dew Point ( °F °C ) Humidity (%) Winds ( mph kmh ) Pressure ( in mb ) Visibility ( mi km ) Precip ( " mm )
12:54 am 00:54 undefined 64 17.8 55 12.8 73 73 undefined N/A 29.90 1013 N/A N/A
1:54 am 01:54 undefined 64 17.8 55 12.8 73 73 undefined N/A 29.91 1013 N/A N/A
2:54 am 02:54 undefined 65 18.3 55 12.8 70 70 undefined N/A 29.91 1013 N/A N/A
3:54 am 03:54 undefined 65 18.3 54 12.2 68 68 undefined N/A 29.91 1013 N/A N/A
4:54 am 04:54 undefined 65 18.3 54 12.2 68 68 undefined N/A 29.92 1013 N/A N/A
5:54 am 05:54 undefined 63 17.2 54 12.2 73 73 undefined N/A 29.89 1012 N/A N/A
6:54 am 06:54 undefined 65 18.3 55 12.8 70 70 undefined N/A 29.91 1013 N/A N/A
7:54 am 07:54 undefined 68 20 55 12.8 63 63 undefined N/A 29.93 1014 N/A N/A
8:54 am 08:54 undefined 68 20 55 12.8 63 63 undefined N/A 29.93 1013 N/A N/A
9:54 am 09:54 undefined 69 20.6 54 12.2 59 59 undefined N/A 29.93 1014 N/A N/A
10:54 am 10:54 undefined 71 21.7 54 12.2 55 55 undefined N/A 29.93 1014 N/A N/A
11:54 am 11:54 undefined 72 22.2 55 12.8 55 55 undefined N/A 29.91 1013 N/A N/A
12:54 pm 12:54 undefined 74 23.3 55 12.8 52 52 undefined N/A 29.92 1013 N/A N/A
1:54 pm 13:54 undefined 73 22.8 56 13.3 55 55 undefined N/A 29.90 1013 N/A N/A
2:54 pm 14:54 undefined 71 21.7 56 13.3 59 59 undefined N/A 29.89 1012 N/A N/A
3:54 pm 15:54 undefined 71 21.7 59 15 66 66 undefined N/A 29.89 1012 N/A N/A
4:54 pm 16:54 undefined 69 20.6 60 15.6 73 73 undefined N/A 29.88 1012 N/A N/A
5:54 pm 17:54 undefined 68 20 61 16.1 78 78 undefined N/A 29.89 1012 N/A N/A
6:54 pm 18:54 undefined 68 20 62 16.7 81 81 undefined N/A 29.88 1012 N/A N/A
7:54 pm 19:54 undefined 67 19.4 61 16.1 81 81 undefined N/A 29.89 1012 N/A N/A
8:54 pm 20:54 undefined 67 19.4 61 16.1 81 81 undefined N/A 29.89 1012 N/A N/A
9:54 pm 21:54 undefined 66 18.9 62 16.7 87 87 undefined N/A 29.91 1013 N/A N/A
10:54 pm 22:54 undefined 66 18.9 61 16.1 84 84 undefined N/A 29.93 1014 N/A N/A
11:54 pm 23:54 undefined 66 18.9 60 15.6 81 81 undefined N/A 29.91 1013 N/A N/A

Powered by AerisWeather